Helicity
83 79 79 83 135 182 44 146 478 468 513 338 506 565 636 243 226 232 337 134 83 30 27 29 84 114 124 137 143 116 112 102
65 71 57 66 87 118 130 25 124 226 327 305 216 284 317 18 96 116 67 -25 -3 -8 47 83 77 115 145 145 150 141 145 161
43 41 78 70 73 44 65 78 118 133 131 86 31 72 54 -28 -48 -98 -159 -67 -46 13 77 61 79 124 133 166 197 210 185 210
77 58 60 47 43 35 16 17 43 34 84 46 -57 -85 -84 -126 -246 -283 -236 -146 -59 -36 58 82 95 129 144 198 210 245 218 218
138 85 81 57 7 -8 13 -29 -49 -53 -64 -70 -101 -137 -178 -227 -263 -259 -203 -106 -65 -32 4 60 105 177 167 188 224 243 264 266
211 144 123 64 37 -14 -58 -71 -127 -117 -112 -113 -110 -130 -150 -177 -192 -166 -109 -69 -25 42 39 105 120 168 143 186 254 276 328 333
226 167 130 102 71 43 13 -21 -67 -104 -85 -81 -80 -104 -98 -90 -51 -25 -29 -12 35 76 98 141 132 177 162 165 218 314 340 333
295 234 245 189 148 127 100 89 42 16 -8 -42 -58 -83 -68 -56 18 45 63 71 72 86 141 187 122 119 211 212 274 313 354 382
320 333 335 299 270 215 175 144 97 74 81 50 15 -4 -44 -23 -11 33 61 76 169 152 204 207 194 211 227 271 297 335 359 370
303 309 323 331 304 292 271 205 159 172 155 119 50 8 -3 -10 2 75 107 177 212 227 227 190 166 212 235 265 309 334 354 350
345 315 327 332 320 336 319 244 269 165 124 135 84 27 -21 -7 76 120 165 162 258 232 198 205 207 211 212 264 301 313 327 328
292 408 349 389 304 293 358 358 251 252 165 101 219 151 125 104 83 138 170 247 260 245 213 216 217 210 245 276 300 305 327 354
139 266 337 402 339 323 372 415 325 365 270 202 141 120 192 281 357 372 132 141 209 228 208 201 227 274 262 294 307 317 392 427
151 187 222 273 264 279 288 349 355 387 284 233 163 211 293 312 353 251 27 99 147 216 224 244 243 243 251 278 301 338 429 477
158 188 140 190 191 184 269 329 383 395 399 325 270 316 325 287 282 195 283 307 289 235 228 224 247 263 279 303 354 416 434 372
169 178 147 144 157 132 149 193 332 409 410 318 332 355 301 225 296 350 345 353 327 228 256 278 312 325 346 370 403 386 388 363
203 173 221 258 275 242 223 240 212 301 324 269 271 357 360 322 277 303 290 290 282 296 296 344 386 377 352 379 386 376 362 302
171 204 218 303 338 368 395 402 362 277 267 324 354 390 348 344 368 380 363 329 345 366 404 414 389 353 352 363 361 361 358 315
161 218 285 368 445 471 539 543 489 389 405 415 430 499 526 474 444 423 401 373 359 360 359 355 359 323 331 344 390 393 359 318
Wind_Speed
42 45 46 46 42 35 26 20 20 23 19 23 26 21 25 21 22 20 14 11 49 58 58 56 28 5 13 13 16 28 28 19
43 43 45 45 46 48 58 64 48 22 19 23 24 26 27 30 23 30 72 72 66 67 59 36 27 7 8 15 27 26 32 23
42 43 42 43 46 52 60 66 73 71 66 61 66 74 48 78 81 83 83 77 72 69 52 25 14 14 19 16 21 25 26 16
43 45 44 46 49 52 59 63 66 67 70 69 70 69 71 77 81 80 79 70 70 65 29 39 11 12 13 13 12 11 13 18
41 45 46 48 51 55 58 63 63 63 65 67 71 70 72 76 76 75 71 66 58 43 23 14 16 18 15 13 17 15 19 21
44 45 44 46 48 51 54 56 61 63 62 61 64 64 64 65 60 57 56 53 48 28 25 17 18 19 17 19 19 19 22 25
41 43 40 40 43 47 47 52 54 59 60 60 59 57 54 51 50 51 44 45 38 28 21 21 21 19 18 17 15 18 23 27
43 41 40 39 43 48 50 50 53 53 55 57 60 59 55 49 45 40 31 30 30 26 22 21 19 16 25 20 20 22 22 24
42 40 40 40 42 44 47 49 50 54 57 58 56 56 50 47 41 33 36 32 24 30 21 15 23 22 14 22 25 22 23 21
44 43 41 40 40 45 45 47 50 50 51 50 53 56 53 47 42 30 29 29 25 19 20 17 14 13 14 18 24 22 21 24
38 39 42 42 43 46 47 45 51 49 33 34 44 51 53 43 31 33 29 23 24 20 16 15 14 14 17 20 22 22 22 28
29 35 40 44 46 41 40 45 48 41 39 39 45 50 46 39 37 37 34 28 23 21 18 16 16 18 20 22 23 23 25 25
12 21 31 38 47 47 46 40 41 41 42 38 35 26 29 30 31 34 56 45 21 22 16 16 19 21 22 22 23 24 24 23
5 4 13 24 37 41 44 42 48 42 39 39 30 26 25 28 24 18 41 25 23 21 18 19 20 20 21 23 24 25 24 25
8 5 9 12 23 27 30 33 35 37 34 37 35 27 29 27 28 26 23 23 22 21 20 20 21 21 23 24 24 23 22 21
14 10 9 14 18 13 15 23 24 27 31 33 35 27 24 23 21 20 20 21 21 18 18 20 20 23 24 24 23 20 21 22
24 22 24 11 10 8 10 12 15 21 24 25 27 24 20 19 15 12 11 12 15 17 19 21 24 28 22 19 19 19 21 23
21 23 26 26 17 13 17 20 17 16 20 22 23 21 19 14 12 11 12 14 16 20 24 24 25 24 18 17 17 20 24 26
29 26 29 29 22 20 20 23 16 12 14 18 20 18 17 16 14 13 13 16 19 23 24 25 24 21 15 16 19 22 26 31
Wind_Direction
148 147 147 143 126 108 121 144 195 199 192 204 217 209 189 196 177 220 200 246 226 218 217 226 261 257 279 284 290 291 303 319
141 135 134 126 127 124 141 141 138 160 172 174 191 200 189 180 189 228 213 205 215 211 233 263 269 225 257 280 289 298 301 312
147 143 131 132 127 132 142 147 155 156 150 149 159 163 171 184 188 197 198 205 204 221 252 267 263 256 271 279 292 301 311 317
152 150 144 141 143 142 148 148 149 154 156 156 160 163 175 180 184 189 198 193 205 201 265 263 212 207 219 260 272 277 293 312
154 154 152 151 152 152 152 156 153 153 156 157 160 163 165 175 183 191 195 195 191 184 185 236 251 252 234 246 277 283 300 302
159 161 157 156 153 153 153 152 158 157 155 154 157 164 172 180 178 182 188 190 193 196 199 241 241 228 245 270 279 279 295 300
165 165 158 158 156 156 153 155 160 166 167 169 172 175 173 172 176 183 187 195 199 208 233 244 244 248 261 266 264 275 288 301
172 168 166 164 166 166 163 162 167 169 173 180 184 187 186 185 187 190 189 189 193 208 219 224 254 247 279 278 284 287 290 298
181 178 174 173 174 175 176 176 177 179 183 187 188 191 189 190 192 193 193 193 194 181 186 234 261 272 269 290 294 292 291 296
189 187 185 182 180 183 184 185 188 188 190 190 195 197 198 199 200 199 201 197 193 191 189 198 215 232 263 283 297 292 292 299
196 195 194 191 189 186 188 194 194 196 207 210 207 207 207 211 225 218 222 223 210 212 211 217 228 260 275 288 295 297 296 304
191 197 198 197 195 194 197 201 202 203 207 209 215 213 216 232 239 247 253 252 239 231 227 241 255 270 282 288 295 298 301 304
183 183 192 199 198 196 199 203 208 210 210 209 216 219 231 255 264 282 270 268 232 234 246 259 274 282 285 286 291 297 298 301
341 165 182 190 196 197 201 207 209 209 211 215 224 233 235 232 246 221 188 256 235 248 256 276 280 283 284 289 291 294 295 298
275 286 221 186 194 199 212 214 215 214 218 222 224 230 231 235 229 229 221 238 246 249 260 276 281 286 291 297 298 302 302 303
239 232 223 177 179 198 220 222 230 227 226 225 227 238 235 235 241 243 250 242 236 244 269 283 288 292 296 298 300 301 303 306
259 224 259 236 231 230 283 279 249 238 239 243 250 245 240 243 239 238 237 250 257 266 280 289 293 298 295 296 301 303 308 311
273 233 249 264 257 278 297 307 293 259 249 255 256 254 248 240 239 238 255 266 279 284 292 294 296 301 299 303 310 315 317 320
280 260 262 271 280 294 306 314 301 279 263 262 268 260 259 259 259 262 279 288 292 298 299 301 304 306 307 314 321 324 324 324